Wind_Speed
15 15 16 17 18 19 18 18 18 16 16 15 15 15 14 14 14 15 14 14 14 14 14 14 14 15 15 16 17 18 18 19 20 20 21 23 24 25 27 28 29 29 29 30
17 17 19 18 18 19 19 19 18 18 17 16 16 17 17 16 16 16 15 15 15 15 15 15 15 16 17 18 19 20 20 21 22 23 24 25 27 28 29 30 31 32 32 33
18 19 20 19 19 20 20 19 18 19 18 18 18 18 18 18 18 18 18 17 17 17 17 17 17 18 19 21 21 22 23 24 25 26 27 28 30 31 32 34 35 35 35 36
20 20 21 19 18 19 19 19 19 19 20 20 21 20 20 21 21 20 20 20 19 19 19 19 20 20 22 23 24 25 25 26 28 29 30 31 32 33 35 37 38 38 39 39
21 22 20 19 20 21 22 21 20 20 20 21 21 21 22 23 22 22 22 22 22 23 22 22 22 23 24 26 27 28 28 30 31 32 33 35 36 36 38 40 41 42 42 42
22 22 21 19 20 21 23 22 21 21 20 20 22 23 22 22 22 23 23 24 25 25 24 24 25 26 27 29 30 31 32 32 34 35 37 39 40 40 41 43 45 46 46 46
21 21 21 20 21 21 22 21 20 20 20 19 20 22 22 21 22 22 23 23 25 26 25 25 27 28 30 31 32 34 35 35 36 38 40 42 43 44 45 46 47 48 49 49
21 21 20 20 20 21 21 20 20 19 19 20 21 22 21 21 21 21 21 23 24 25 27 28 28 30 32 33 35 36 37 38 39 41 42 44 46 46 48 49 50 51 52 52
21 21 21 21 21 21 21 20 20 20 20 21 22 22 23 22 21 22 22 24 25 26 28 30 31 32 34 36 37 38 40 41 43 44 45 46 48 49 50 51 52 53 54 54
23 22 23 22 22 21 21 21 22 22 23 23 23 22 21 21 21 22 23 25 26 28 30 31 33 34 36 38 40 41 42 44 45 46 48 49 50 51 52 53 54 56 56 57
24 24 24 23 23 23 23 23 23 23 23 22 21 21 22 23 24 25 26 27 29 30 32 33 35 37 38 40 42 43 44 46 47 48 50 51 52 54 55 56 58 59 60 61
25 25 25 25 26 26 25 25 24 24 24 24 25 25 25 26 27 27 29 30 31 33 34 36 37 39 40 42 43 45 46 48 49 51 52 54 55 56 58 60 61 63 64 65
26 26 26 26 26 26 25 25 26 26 26 26 26 26 27 28 29 30 31 32 33 35 36 38 40 41 42 44 45 47 48 50 52 54 55 57 58 59 60 61 63 65 66 68
26 26 26 26 26 26 26 26 26 26 26 26 27 28 28 29 30 31 32 34 35 37 39 40 42 43 44 46 48 49 51 53 55 56 57 59 60 62 63 64 65 66 67 69
26 26 26 26 27 28 28 28 27 27 28 28 28 29 29 31 32 33 35 36 38 39 41 43 44 46 47 49 51 52 54 55 57 58 60 62 63 65 66 67 68 68 68 68
25 25 26 27 28 28 30 30 29 29 30 29 29 30 31 33 34 35 37 38 40 42 44 45 47 49 50 52 54 55 57 58 60 61 63 64 65 66 66 66 66 66 65 65
25 25 26 26 27 27 27 28 29 30 29 29 31 32 33 35 36 38 40 42 43 45 47 49 50 52 54 56 57 58 59 60 62 63 63 64 64 63 63 62 62 61 60 59
25 26 26 25 24 25 26 27 27 28 28 30 32 34 36 38 40 42 43 45 47 49 51 53 54 55 57 58 58 59 60 60 61 61 61 60 59 59 58 57 56 54 53 51
26 26 26 26 25 24 25 27 29 30 32 34 36 38 40 42 44 46 48 49 51 52 53 55 56 56 57 57 58 58 58 58 57 56 55 54 53 52 51 50 49 47 44 41
27 27 27 27 27 27 28 29 31 33 35 38 40 42 44 46 48 49 50 51 52 53 54 54 55 55 55 55 55 54 53 52 51 50 49 48 48 47 46 44 42 40 37 34
27 27 27 28 29 31 33 35 37 38 40 42 44 46 47 48 49 50 50 51 52 52 52 52 52 51 50 50 49 48 47 46 45 44 44 44 43 42 40 38 36 33 31 29
28 31 32 34 35 36 38 40 41 42 44 45 47 48 48 49 49 50 50 50 49 48 48 47 47 46 45 44 43 42 42 42 41 41 41 40 38 37 35 32 30 27 26 23
34 36 36 37 38 40 42 44 45 46 47 48 48 48 48 48 48 47 46 45 44 43 43 42 41 40 40 39 39 39 39 40 39 38 37 36 35 33 30 27 24 23 21 17
36 38 40 42 43 44 46 47 48 48 48 48 47 47 46 45 44 43 41 40 39 39 39 38 38 37 37 37 37 37 37 36 34 33 33 32 29 26 24 22 19 17 15 12
40 42 44 45 46 47 47 48 48 47 46 45 44 43 42 40 39 38 37 37 36 36 35 35 35 35 35 35 34 34 33 31 30 29 28 25 23 21 19 18 16 13 11 9
42 43 44 45 45 45 45 44 43 42 41 39 39 38 37 36 35 34 34 33 33 33 33 33 32 32 31 31 30 29 28 27 26 24 22 21 19 17 16 14 12 10 9 8
41 42 42 42 42 41 40 38 37 36 35 34 34 33 33 32 31 31 30 30 30 30 30 29 29 28 27 27 26 25 24 23 22 20 19 18 16 14 12 11 10 9 8 7
Wind_Direction
281 285 290 294 299 301 296 289 284 283 276 272 273 274 270 269 270 268 268 264 258 254 253 254 255 255 256 258 259 261 264 267 270 274 277 280 282 284 287 288 290 291 292 293
280 283 287 292 294 297 298 292 286 281 276 273 274 273 270 268 270 268 265 263 259 257 257 257 259 261 262 264 265 267 270 272 275 277 279 281 282 284 286 288 289 290 291 292
279 281 284 291 295 295 296 293 290 283 277 272 274 274 271 270 269 266 263 263 260 257 258 259 261 265 267 269 271 273 276 278 280 281 282 283 284 286 287 288 288 289 291 292
279 281 282 292 291 292 294 294 292 288 278 274 274 273 273 273 269 269 263 261 260 257 258 262 265 269 272 274 276 277 279 282 284 285 285 286 287 288 289 289 290 291 292 292
279 282 285 287 288 287 289 289 288 287 280 274 274 273 273 270 264 264 262 258 260 261 260 264 267 271 275 276 278 279 281 283 285 287 288 288 288 289 290 290 291 291 291 291
279 281 284 290 289 289 289 289 285 284 281 275 271 269 271 267 264 260 259 262 262 263 264 267 271 274 276 279 279 279 282 284 285 287 288 288 288 288 288 288 288 288 289 291
277 280 284 288 289 291 292 292 288 286 281 277 275 267 266 265 262 260 259 265 267 265 267 270 274 276 279 280 282 284 284 284 284 285 286 287 287 286 286 287 288 289 289 289
275 279 282 285 286 288 290 289 288 286 282 279 276 271 268 267 264 264 265 267 270 271 272 273 275 278 279 280 281 282 283 283 284 284 284 284 285 285 285 286 286 286 287 287
272 276 279 282 285 289 289 287 287 286 283 283 279 275 273 270 267 267 269 272 272 274 275 276 277 278 280 282 283 283 284 285 285 286 286 286 286 286 286 286 286 286 286 286
271 274 277 281 284 287 286 286 284 282 281 280 281 276 273 272 273 274 275 276 277 278 279 280 282 283 284 285 285 286 286 287 287 287 288 288 288 287 287 287 287 286 286 286
269 273 276 279 282 283 283 282 281 281 280 280 276 275 276 277 279 280 281 281 281 282 284 285 286 286 286 287 287 288 288 289 289 289 289 289 289 289 289 288 288 288 287 287
269 272 274 277 279 280 279 278 277 277 278 277 276 277 277 278 278 280 283 284 285 286 287 287 288 288 289 289 289 289 290 290 290 290 290 290 289 289 289 289 289 288 288 287
271 273 275 277 277 276 274 274 272 271 272 274 275 276 278 279 281 283 285 287 288 288 289 289 290 290 290 290 291 291 291 291 290 290 290 290 290 289 289 288 289 288 288 288
272 273 273 272 273 272 271 269 268 268 271 274 276 277 279 282 284 286 287 289 289 290 290 291 291 292 292 292 292 292 292 292 292 291 291 291 291 290 290 289 288 287 287 287
271 272 271 271 271 270 267 267 267 268 272 276 278 280 282 284 286 287 289 290 291 291 292 292 293 294 294 294 294 294 294 294 294 294 293 293 293 292 292 291 290 290 289 288
270 270 271 272 271 268 266 267 268 271 274 276 277 280 283 285 287 289 290 291 292 293 294 295 295 296 296 296 296 296 296 296 296 296 295 295 294 294 293 293 293 292 291 290
269 271 273 274 274 272 272 271 271 271 272 274 278 282 286 288 290 291 293 294 295 296 296 297 297 298 298 298 298 298 298 298 298 297 297 297 296 296 296 295 295 295 294 293
270 273 275 276 278 276 273 273 271 272 275 279 283 287 290 292 293 294 295 296 297 298 298 299 299 300 299 299 299 300 299 299 299 299 299 299 299 299 299 299 299 298 297 296
276 278 280 282 282 279 277 276 276 278 282 286 289 291 293 294 295 295 296 297 297 298 299 300 300 300 300 301 301 301 301 301 301 301 301 302 302 302 302 302 302 301 301 299
281 281 281 281 279 276 275 276 278 281 285 288 291 293 294 295 296 297 297 298 299 300 300 301 301 302 302 302 302 302 303 303 303 303 304 305 305 305 305 305 304 304 304 302
279 277 277 277 276 276 278 281 284 286 289 292 293 295 296 298 298 299 300 300 301 302 302 302 303 303 304 304 304 304 305 306 306 307 307 308 309 309 309 308 308 308 307 305
275 277 278 278 279 281 283 285 288 291 293 295 297 298 299 300 300 301 301 302 303 303 304 304 305 306 306 306 306 307 307 308 309 310 310 311 312 313 313 312 311 311 311 310
276 277 278 279 281 284 287 290 293 296 298 299 300 301 301 302 302 302 303 303 304 304 305 306 307 308 308 308 309 309 309 310 311 312 312 313 314 314 315 314 315 315 315 315
275 277 280 284 287 290 292 295 297 299 300 301 301 302 302 302 302 302 303 304 304 305 306 307 308 308 309 310 311 311 312 313 314 315 316 317 317 318 320 321 322 323 322 321
279 282 285 287 290 293 295 297 298 300 301 301 301 301 301 301 302 302 302 303 304 305 306 307 309 310 311 313 314 316 317 318 319 321 322 323 325 327 328 329 331 333 334 336
284 286 288 291 293 295 296 297 299 299 300 300 300 300 300 300 301 301 301 302 303 305 307 308 310 312 314 317 319 320 322 323 325 327 329 330 332 334 337 341 346 349 350 350
288 290 291 293 294 296 297 298 298 299 300 300 300 300 300 301 301 301 301 302 305 307 309 311 313 315 318 321 323 325 327 329 331 333 336 339 341 344 348 353 357 0 2 2
Height
5840 5839 5839 5838 5838 5836 5835 5835 5835 5836 5836 5837 5837 5837 5837 5838 5837 5837 5836 5836 5835 5835 5835 5835 5835 5835 5835 5835 5834 5834 5833 5832 5832 5831 5830 5829 5828 5826 5825 5823 5821 5820 5818 5816
5835 5834 5834 5834 5833 5833 5831 5831 5830 5831 5832 5832 5833 5833 5833 5833 5833 5833 5832 5832 5832 5831 5831 5831 5831 5831 5830 5830 5829 5828 5827 5826 5825 5824 5823 5822 5820 5818 5816 5815 5813 5811 5809 5807
5830 5829 5828 5829 5830 5828 5828 5827 5826 5826 5828 5827 5827 5828 5828 5828 5828 5828 5827 5827 5827 5827 5827 5826 5826 5825 5824 5823 5823 5822 5821 5820 5818 5817 5815 5814 5812 5810 5808 5806 5803 5802 5800 5798
5825 5825 5824 5827 5824 5823 5823 5822 5821 5821 5821 5821 5822 5822 5822 5822 5822 5822 5822 5821 5821 5821 5821 5820 5820 5819 5818 5817 5816 5815 5813 5812 5810 5809 5807 5805 5803 5801 5799 5796 5794 5792 5790 5788
5819 5818 5819 5820 5819 5818 5817 5817 5816 5815 5815 5815 5815 5816 5815 5815 5815 5815 5815 5815 5815 5815 5814 5814 5813 5812 5811 5810 5808 5807 5805 5804 5802 5800 5799 5796 5794 5792 5789 5787 5785 5782 5780 5777
5813 5813 5813 5815 5814 5811 5812 5810 5810 5809 5808 5808 5808 5809 5809 5808 5808 5807 5808 5807 5807 5807 5807 5806 5805 5804 5803 5802 5800 5799 5797 5795 5793 5791 5789 5786 5784 5781 5779 5776 5774 5771 5768 5766
5807 5806 5807 5808 5807 5806 5806 5806 5804 5802 5802 5802 5802 5802 5801 5800 5800 5800 5800 5800 5800 5799 5799 5798 5798 5797 5795 5793 5791 5790 5788 5786 5783 5781 5779 5776 5773 5770 5767 5764 5761 5758 5756 5753
5801 5801 5803 5801 5801 5801 5800 5798 5797 5796 5795 5795 5795 5794 5794 5793 5793 5792 5792 5792 5791 5791 5790 5790 5789 5788 5786 5784 5782 5780 5778 5775 5773 5770 5767 5764 5761 5758 5755 5752 5748 5745 5742 5739
5796 5797 5796 5795 5795 5794 5793 5792 5790 5790 5789 5788 5787 5787 5786 5786 5785 5785 5785 5784 5783 5783 5782 5781 5779 5778 5776 5774 5771 5769 5766 5764 5761 5758 5755 5752 5748 5745 5741 5737 5734 5730 5727 5724
5789 5789 5789 5789 5788 5787 5786 5786 5784 5783 5783 5782 5781 5780 5779 5779 5778 5778 5777 5777 5776 5775 5773 5771 5770 5767 5765 5763 5760 5757 5754 5751 5748 5744 5741 5737 5733 5730 5726 5722 5718 5714 5710 5707
5782 5783 5782 5782 5781 5781 5780 5779 5778 5777 5776 5775 5774 5773 5773 5772 5772 5771 5770 5769 5767 5765 5763 5761 5759 5756 5754 5751 5748 5745 5741 5738 5734 5731 5727 5723 5718 5714 5709 5705 5700 5696 5692 5688
5775 5775 5775 5775 5774 5773 5773 5772 5771 5770 5769 5768 5767 5766 5766 5765 5764 5763 5761 5759 5757 5755 5753 5751 5748 5745 5742 5739 5736 5732 5729 5725 5721 5716 5712 5708 5703 5699 5693 5688 5682 5677 5672 5668
5767 5767 5767 5766 5766 5765 5765 5764 5763 5762 5761 5760 5760 5759 5758 5757 5755 5754 5752 5750 5747 5745 5742 5740 5737 5733 5730 5726 5723 5719 5715 5710 5706 5701 5696 5691 5686 5681 5677 5672 5665 5658 5652 5646
5759 5759 5759 5758 5758 5757 5756 5756 5755 5754 5753 5752 5751 5750 5749 5748 5746 5744 5742 5740 5737 5734 5731 5728 5725 5721 5717 5713 5709 5704 5700 5695 5690 5685 5679 5673 5668 5662 5656 5651 5647 5640 5633 5625
5751 5751 5751 5750 5750 5749 5748 5747 5746 5745 5744 5744 5743 5741 5740 5738 5736 5734 5732 5729 5726 5723 5720 5716 5712 5708 5704 5699 5695 5689 5684 5679 5673 5667 5660 5654 5648 5642 5635 5629 5623 5617 5611 5604
5743 5743 5743 5742 5741 5740 5739 5738 5737 5736 5735 5735 5733 5732 5731 5729 5726 5724 5721 5718 5715 5711 5707 5703 5699 5694 5689 5684 5679 5673 5667 5661 5654 5648 5641 5634 5627 5620 5613 5606 5600 5593 5587 5581
5736 5736 5735 5734 5733 5732 5731 5730 5729 5728 5727 5726 5724 5723 5720 5718 5715 5712 5709 5706 5702 5698 5694 5689 5684 5679 5673 5667 5661 5655 5649 5642 5635 5628 5621 5613 5606 5599 5592 5585 5579 5572 5566 5559
5728 5728 5727 5726 5725 5723 5722 5721 5720 5718 5717 5715 5714 5712 5709 5707 5704 5700 5697 5692 5688 5684 5679 5674 5668 5662 5656 5650 5644 5637 5630 5624 5616 5609 5602 5594 5587 5580 5573 5566 5559 5553 5547 5541
5720 5719 5718 5717 5716 5714 5713 5712 5711 5709 5707 5705 5703 5700 5697 5694 5691 5687 5683 5679 5674 5669 5663 5658 5652 5645 5639 5633 5626 5619 5612 5606 5598 5591 5584 5577 5570 5563 5556 5550 5543 5537 5531 5526
5711 5710 5709 5708 5706 5705 5704 5702 5700 5698 5696 5694 5692 5688 5685 5681 5677 5673 5669 5664 5658 5653 5647 5642 5635 5629 5623 5616 5609 5603 5596 5589 5583 5576 5569 5563 5556 5549 5542 5536 5530 5524 5519 5514
5703 5701 5700 5698 5697 5695 5693 5691 5689 5687 5685 5682 5679 5675 5671 5667 5663 5658 5653 5648 5643 5637 5632 5626 5620 5613 5607 5601 5594 5588 5582 5576 5570 5563 5557 5551 5544 5537 5531 5525 5519 5514 5509 5505
5693 5691 5690 5688 5686 5684 5682 5680 5677 5675 5672 5669 5665 5661 5657 5653 5648 5643 5638 5633 5628 5622 5617 5611 5605 5600 5594 5588 5582 5576 5571 5565 5559 5553 5546 5540 5534 5528 5521 5516 5511 5506 5502 5498
5683 5681 5679 5677 5675 5673 5670 5667 5665 5662 5658 5655 5651 5647 5642 5638 5634 5629 5624 5619 5614 5609 5604 5599 5594 5588 5583 5577 5572 5566 5561 5555 5549 5543 5537 5531 5525 5519 5514 5509 5504 5500 5496 5493
5672 5670 5667 5665 5663 5660 5658 5655 5651 5648 5644 5641 5637 5633 5629 5625 5620 5616 5611 5607 5602 5598 5593 5589 5584 5579 5574 5568 5563 5557 5551 5545 5540 5534 5528 5523 5517 5513 5508 5504 5500 5496 5493 5490
5661 5658 5656 5653 5651 5648 5645 5642 5638 5635 5631 5628 5624 5620 5616 5612 5608 5604 5600 5596 5592 5588 5584 5580 5575 5570 5565 5560 5554 5549 5543 5538 5533 5527 5522 5517 5513 5508 5504 5501 5497 5494 5492 5490
5649 5647 5644 5641 5639 5636 5633 5630 5626 5623 5619 5616 5612 5608 5605 5601 5598 5594 5591 5587 5584 5580 5576 5572 5567 5562 5558 5553 5547 5542 5537 5532 5527 5523 5518 5514 5509 5506 5502 5499 5496 5494 5492 5490
5637 5635 5632 5630 5627 5624 5621 5618 5615 5612 5608 5605 5602 5598 5595 5592 5588 5585 5582 5579 5576 5572 5568 5564 5560 5556 5551 5547 5542 5537 5533 5528 5524 5519 5515 5511 5508 5505 5502 5499 5497 5494 5493 5491